TITAN 3C TRANSTAGE DEB, 1642

Orbit data source: Space-Track

TITAN 3C TRANSTAGE DEB, 1642 is space debris in LEO originally from a launch on Fri, 15 Oct 1965 UTC launched from the Air Force Eastern Test Range (AFETR). Debris objects in space refer to the collection of defunct objects orbiting the Earth. Examples of debris include non-operational satellites, rocket bodies, and fragments generated from explosions, collisions, or faulty payload assembly.

Loading next visibility...
Identifier
1642, 1965-082D
Orbit
LEO
Country
Flag of USUS
Related business
Manufacturer
Unknown
Mission
Spacecraft
Bus & Motor
Unknown
Mass
Unknown
Launch date (UTC)
1965-10-15 (60 years ago)
Launch vehicle
Unknown
Launch site
Air Force Eastern Test Range (AFETR)
Object type
Payload
Rocket body
Debris
Shape & HBR
Unknown shape, 1.5 m
Radar Cross Section
Large (>1 m²)

Expand to show TLE details & history
Last TLE update: 13 hours ago

TLE from 13 hours ago
0 TITAN 3C TRANSTAGE DEB
1  1642U 65082D   26035.37967082  .00001454  00000-0  16393-3 0  9991
2  1642  32.0930 279.3125 0023096 172.5363 187.5635 14.84253056217832
Epoch: 2026-02-04T09:06Z
TLE epoch observation values (Epoch: 2026-02-04T09:06:43.558Z)
Latitude
-0.00001°
Longitude
8.0839°
Altitude
630.574 km
Speed
7.537 km/s
True Right ascension
18h 37m 14s
True Declination
0° 00' 00"
Sunlit
Object was in daylight at epoch
Visualization orbit readout
Latitude
Unknown
Longitude
Unknown
Altitude
Unknown
Speed
Unknown
Apparent Right ascension
Unknown
Apparent Declination
Unknown
Sunlit
N/A
Visualization observer readout
Local Sidereal Time
00:22:04
Azimuth
Unknown
Elevation
Unknown
Doppler factor
Unknown
Orbital elements
Apogee altitude
635.73 km
Perigee altitude
603.406 km
Semi-major axis
6,997.705 km
Eccentricity
0.00231
Inclination
32.093°
RAAN
279.3125°
Arg. of periapsis
172.5363°
True anomaly
187.52876°
Mean anomaly
187.5635°
Eccentric anomaly
187.54612°
Mean motion
3.70774 °/min
Orbital period
97.09 mins
BSTAR
0.00016393

Documentation

Showing up to 5 results
|